Regional Weather Roundup
Issued by NWS

Home | Current Version | Previous Version | Text Only | Print | Product List | Glossary On
Versions: 1 2 3 4 5 6 7 8 9 10 11 12 13 14 15 16 17 18 19 20 21 22 23 24 25 26 27 28 29 30 31 32 33 34 35 36 37 38 39 40 41 42 43 44 45 46 47 48 49 50
000
ASUS43 KFSD 241510
RWRSD

WEATHER ROUNDUP FOR SOUTH DAKOTA
NATIONAL WEATHER SERVICE SIOUX FALLS SD
900 AM CST TUE JAN 24 2017

NOTE: "FAIR" INDICATES FEW OR NO CLOUDS BELOW 12,000 FEET WITH NO
SIGNIFICANT WEATHER AND/OR OBSTRUCTIONS TO VISIBILITY.


SDZ001>005-009-010-012>017-241600-
NORTHWEST AND NORTH CENTRAL SOUTH DAKOTA

CITY           SKY/WX    TMP DP  RH WIND       PRES   REMARKS
BUFFALO          N/A     24  20  84 NE12      29.75R WCI  13
FAITH            N/A     23  22  96 NE22      29.79R WCI   8
MOBRIDGE       CLOUDY    25  20  81 N14       29.82R WCI  13
$$

SDZ012>016-024>037-041>051-057-063-072>074-241600-
SOUTHWEST AND SOUTH CENTRAL SOUTH DAKOTA

CITY           SKY/WX    TMP DP  RH WIND       PRES   REMARKS
RAPID CTY ARPT LGT SNOW  20  17  88 NW16      29.77R FOG     WCI   6
PIERRE         MIX PCPN  28  26  92 NE17      29.76S FOG     WCI  16
CUSTER         SNOW      16  13  88 CALM      29.61R VSB 1/2
ELLSWORTH AFB  LGT SNOW  19  19 100 NW5       29.76  FOG     WCI  13
PINE RIDGE     SNOW      23  21  92 N14       29.68S VSB 1/4 WCI  11
SPEARFISH      SNOW      16  16 100 NW5       29.77R VSB 1/4 WCI   9
WINNER         LGT SNOW  30  28  92 E10       29.69S VSB 1   WCI  21
$$

SDZ004>011-016>023-039-040-241600-
NORTHEAST SOUTH DAKOTA

CITY           SKY/WX    TMP DP  RH WIND       PRES   REMARKS
ABERDEEN       LGT SNOW  27  24  89 NE10      29.85R FOG     WCI  17
WATERTOWN      CLOUDY    28  26  92 E12       29.81F WCI  18
BROOKINGS      CLOUDY    29  27  92 E9        29.79F FOG     WCI  20
SISSETON         N/A     30  29  96 E5        29.87R WCI  25
$$

SDZ017-020-022-023-036>040-048>070-241600-
SOUTHEAST SOUTH DAKOTA

CITY           SKY/WX    TMP DP  RH WIND       PRES   REMARKS
SIOUX FALLS    CLOUDY    31  29  92 E16       29.77F WCI  20
HURON          CLOUDY    31  29  92 E13       29.80S WCI  21
CHAMBERLAIN    LGT SNOW  32  32 100 NE9       29.73S WCI  24
MITCHELL       CLOUDY    32  30  92 E12       29.77F WCI  23
YANKTON        CLOUDY    30  27  86 E14       29.74R WCI  20
$$

ABBREVIATIONS USED IN REMARKS
   TC - TEMPERATURE IN CELSIUS
  WCI - WIND CHILL INDEX
   HX - HEAT INDEX
  VSB - VISIBILITY




USA.gov is the U.S. government's official web portal to all federal, state and local government web resources and services.